Rugby, ND

3:29 AM CDT on October 18, 2017 (GMT -0500)
Rugby Municipal

Weather History for KRUG - December, 2012

Change the Weather History Date:

Tuesday, December 4, 2012

  Actual Average Record
Temperature  
Mean Temperature 10 °F -  
Max Temperature 15 °F 27 °F 51 °F (1979)
Min Temperature 6 °F 8 °F -19 °F (1964)
Degree Days  
Heating Degree Days 54    
Moisture  
Dew Point 5 °F    
Average Humidity 80    
Maximum Humidity 92    
Minimum Humidity 62    
Precipitation  
Precipitation 0.00 in - - ()
Sea Level Pressure  
Sea Level Pressure 30.19 in    
Wind  
Wind Speed 11 mph (NNW)    
Max Wind Speed 16 mph    
Max Gust Speed 21 mph    
Visibility 10 miles    
Events      
Averages and records for this station are not official NWS values.
T = Trace of Precipitation, MM = Missing Value Source: NWS Daily Summary

Daily Weather History Graph

Daily Weather History Graph

Search for Another Location

Airport or City:

Trip Planner

Search our weather history database for the weather conditions in past years. The results will help you decide how hot, cold, wet, or windy it might be!

Date:

Astronomy

Dec. 04, 2012 Rise Set
Actual Time 8:14 AM CST 4:46 PM CST
Civil Twilight 7:38 AM CST 5:22 PM CST
Nautical Twilight 6:58 AM CST 6:01 PM CST
Astronomical Twilight 6:21 AM CST 6:39 PM CST
Moon 10:54 PM CST (12/4) 11:52 AM CST (12/4)
Length of Visible Light 9h 43m
Length of Day
8h 31m
Waning Gibbous, 69% of the Moon is Illuminated
Dec 4
Waning Gibbous
Dec 6
Last Quarter
Dec 13
New
Dec 19
First Quarter
Dec 28
Full

Hourly Weather History & Observations

Time (CST) Temp. Windchill Dew Point Humidity Pressure Visibility Wind Dir Wind Speed Gust Speed Precip Events Conditions
12:15 AM 8.6 °F -8.3 °F 5.0 °F 85% 29.97 in 10.0 mi WNW 15.0 mph 19.6 mph N/A   Clear
12:35 AM 8.6 °F -8.3 °F 3.2 °F 79% 29.99 in 10.0 mi WNW 15.0 mph - N/A   Clear
12:55 AM 8.6 °F -7.7 °F 3.2 °F 79% 29.99 in 10.0 mi WNW 13.8 mph - N/A   Clear
1:15 AM 8.6 °F -6.3 °F 3.2 °F 79% 30.02 in 10.0 mi West 11.5 mph - N/A   Clear
1:35 AM 8.6 °F -7.7 °F 5.0 °F 85% 30.02 in 10.0 mi West 13.8 mph - N/A   Clear
1:55 AM 8.6 °F -5.5 °F 3.2 °F 79% 30.04 in 10.0 mi West 10.4 mph - N/A   Clear
2:15 AM 6.8 °F -9.3 °F 5.0 °F 92% 30.04 in 10.0 mi WNW 12.7 mph - N/A   Clear
2:55 AM 8.6 °F -7.0 °F 5.0 °F 85% 30.06 in 10.0 mi WNW 12.7 mph - N/A   Mostly Cloudy
3:15 AM 8.6 °F -7.7 °F 5.0 °F 85% 30.07 in 10.0 mi WNW 13.8 mph - N/A   Overcast
3:35 AM 8.6 °F -7.0 °F 5.0 °F 85% 30.07 in 10.0 mi WNW 12.7 mph - N/A   Overcast
3:55 AM 8.6 °F -7.0 °F 5.0 °F 85% 30.08 in 10.0 mi WNW 12.7 mph - N/A   Overcast
4:15 AM 8.6 °F -7.0 °F 5.0 °F 85% 30.10 in 10.0 mi WNW 12.7 mph - N/A   Overcast
4:35 AM 10.4 °F -5.4 °F 5.0 °F 79% 30.10 in 10.0 mi WNW 13.8 mph - N/A   Overcast
4:55 AM 10.4 °F -5.4 °F 5.0 °F 79% 30.11 in 10.0 mi WNW 13.8 mph - N/A   Overcast
5:15 AM 10.4 °F -6.0 °F 5.0 °F 79% 30.11 in 10.0 mi NW 15.0 mph - N/A   Overcast
5:35 AM 8.6 °F -6.3 °F 5.0 °F 85% 30.12 in 10.0 mi NW 11.5 mph - N/A   Mostly Cloudy
6:15 AM 8.6 °F -4.7 °F 5.0 °F 85% 30.13 in 10.0 mi NW 9.2 mph - N/A   Clear
6:35 AM 8.6 °F -5.5 °F 5.0 °F 85% 30.14 in 10.0 mi NW 10.4 mph - N/A   Clear
6:55 AM 8.6 °F -4.7 °F 5.0 °F 85% 30.16 in 10.0 mi NW 9.2 mph - N/A   Clear
7:15 AM 6.8 °F -8.6 °F 3.2 °F 85% 30.18 in 10.0 mi NW 11.5 mph - N/A   Clear
7:35 AM 6.8 °F -7.8 °F 3.2 °F 85% 30.19 in 10.0 mi NW 10.4 mph - N/A   Clear
7:55 AM 6.8 °F -8.6 °F 1.4 °F 79% 30.20 in 10.0 mi WNW 11.5 mph - N/A   Clear
8:15 AM 6.8 °F -6.9 °F 1.4 °F 79% 30.21 in 10.0 mi WNW 9.2 mph - N/A   Clear
8:35 AM 6.8 °F -8.6 °F 1.4 °F 79% 30.22 in 10.0 mi NW 11.5 mph - N/A   Clear
8:55 AM 6.8 °F -8.6 °F 1.4 °F 79% 30.23 in 10.0 mi NW 11.5 mph - N/A   Clear
9:15 AM 6.8 °F -9.3 °F 1.4 °F 79% 30.24 in 10.0 mi NW 12.7 mph - N/A   Clear
9:35 AM 6.8 °F -8.6 °F 1.4 °F 79% 30.24 in 10.0 mi NW 11.5 mph - N/A   Clear
9:55 AM 6.8 °F -6.9 °F 1.4 °F 79% 30.25 in 10.0 mi NW 9.2 mph - N/A   Clear
10:15 AM 8.6 °F -5.5 °F 1.4 °F 73% 30.25 in 10.0 mi NW 10.4 mph - N/A   Clear
10:35 AM 8.6 °F -3.7 °F 1.4 °F 73% 30.26 in 10.0 mi NW 8.1 mph - N/A   Clear
10:55 AM 8.6 °F -3.7 °F 1.4 °F 73% 30.27 in 10.0 mi NW 8.1 mph - N/A   Clear
11:15 AM 8.6 °F -1.3 °F 1.4 °F 73% 30.26 in 10.0 mi NNW 5.8 mph - N/A   Clear
11:35 AM 10.4 °F 2.2 °F 1.4 °F 67% 30.26 in 10.0 mi North 4.6 mph - N/A   Clear
11:55 AM 10.4 °F - 1.4 °F 67% 30.26 in 10.0 mi Calm Calm - N/A   Clear
12:15 PM 10.4 °F - 3.2 °F 73% 30.25 in 10.0 mi Calm Calm - N/A   Clear
12:35 PM 12.2 °F - 5.0 °F 73% 30.26 in 10.0 mi Calm Calm - N/A   Clear
12:55 PM 14.0 °F - 5.0 °F 67% 30.26 in 10.0 mi Calm Calm - N/A   Clear
1:15 PM 14.0 °F - 5.0 °F 67% 30.27 in 10.0 mi Calm Calm - N/A   Clear
1:35 PM 14.0 °F - 5.0 °F 67% 30.27 in 10.0 mi Calm Calm - N/A   Clear
1:55 PM 15.8 °F - 5.0 °F 62% 30.27 in 10.0 mi Calm Calm - N/A   Clear
2:15 PM 15.8 °F - 6.8 °F 68% 30.26 in 10.0 mi Calm Calm - N/A   Clear
2:35 PM 15.8 °F 7.2 °F 6.8 °F 68% 30.26 in 10.0 mi South 5.8 mph - N/A   Clear
2:55 PM 14.0 °F 5.1 °F 5.0 °F 67% 30.26 in 10.0 mi SSE 5.8 mph - N/A   Clear
3:15 PM 14.0 °F 5.1 °F 6.8 °F 73% 30.26 in 10.0 mi SE 5.8 mph - N/A   Clear
3:35 PM 14.0 °F 8.2 °F 6.8 °F 73% 30.26 in 10.0 mi SE 3.5 mph - N/A   Clear
3:55 PM 14.0 °F 5.1 °F 6.8 °F 73% 30.26 in 10.0 mi ESE 5.8 mph - N/A   Clear
4:15 PM 12.2 °F 2.9 °F 6.8 °F 79% 30.26 in 10.0 mi ESE 5.8 mph - N/A   Clear
4:35 PM 12.2 °F 2.9 °F 6.8 °F 79% 30.25 in 10.0 mi ESE 5.8 mph - N/A   Clear
4:55 PM 10.4 °F -0.4 °F 6.8 °F 85% 30.24 in 10.0 mi ESE 6.9 mph - N/A   Clear
5:15 PM 10.4 °F 0.8 °F 6.8 °F 85% 30.25 in 10.0 mi ESE 5.8 mph - N/A   Clear
5:35 PM 8.6 °F -2.6 °F 6.8 °F 92% 30.24 in 10.0 mi ESE 6.9 mph - N/A   Clear
5:55 PM 8.6 °F -3.7 °F 6.8 °F 92% 30.25 in 10.0 mi East 8.1 mph - N/A   Clear
6:15 PM 8.6 °F -5.5 °F 6.8 °F 92% 30.25 in 10.0 mi East 10.4 mph - N/A   Clear
6:35 PM 10.4 °F -0.4 °F 6.8 °F 85% 30.26 in 10.0 mi East 6.9 mph - N/A   Clear
6:55 PM 8.6 °F -3.7 °F 6.8 °F 92% 30.25 in 10.0 mi ESE 8.1 mph - N/A   Clear
7:15 PM 10.4 °F -4.8 °F 6.8 °F 85% 30.24 in 10.0 mi East 12.7 mph - N/A   Clear
7:35 PM 8.6 °F -5.5 °F 6.8 °F 92% 30.23 in 10.0 mi ESE 10.4 mph - N/A   Clear
7:55 PM 10.4 °F -4.1 °F 6.8 °F 85% 30.23 in 10.0 mi ESE 11.5 mph - N/A   Clear
8:15 PM 10.4 °F -3.3 °F 6.8 °F 85% 30.25 in 10.0 mi ESE 10.4 mph - N/A   Clear
8:35 PM 10.4 °F -3.3 °F 6.8 °F 85% 30.24 in 10.0 mi SE 10.4 mph - N/A   Clear
8:55 PM 10.4 °F -3.3 °F 6.8 °F 85% 30.24 in 10.0 mi ESE 10.4 mph - N/A   Clear
9:15 PM 10.4 °F -2.4 °F 6.8 °F 85% 30.24 in 10.0 mi ESE 9.2 mph - N/A   Clear
9:35 PM 10.4 °F -3.3 °F 6.8 °F 85% 30.23 in 10.0 mi ESE 10.4 mph - N/A   Clear
9:55 PM 10.4 °F -3.3 °F 8.6 °F 92% 30.23 in 10.0 mi ESE 10.4 mph - N/A   Clear
10:15 PM 10.4 °F -4.8 °F 8.6 °F 92% 30.21 in 10.0 mi ESE 12.7 mph - N/A   Clear
10:35 PM 12.2 °F -3.1 °F 8.6 °F 85% 30.20 in 10.0 mi ESE 13.8 mph 18.4 mph N/A   Scattered Clouds
10:55 PM 14.0 °F -2.0 °F 8.6 °F 79% 30.19 in 10.0 mi SE 16.1 mph 20.7 mph N/A   Mostly Cloudy
11:15 PM 14.0 °F 0.5 °F 8.6 °F 79% 30.19 in 10.0 mi SE 11.5 mph 19.6 mph N/A   Scattered Clouds
11:35 PM 14.0 °F -0.2 °F 10.4 °F 86% 30.18 in 10.0 mi SE 12.7 mph 18.4 mph N/A   Partly Cloudy
11:55 PM 15.8 °F 2.7 °F 10.4 °F 79% 30.18 in 10.0 mi SE 11.5 mph 19.6 mph N/A   Scattered Clouds